Regional Weather Roundup
Issued by NWS

Home | Current Version | Previous Version | Text Only | Print | Product List | Glossary On
Versions: 1 2 3 4 5 6 7 8 9 10 11 12 13 14 15 16 17 18 19 20 21 22 23 24 25 26 27 28 29 30 31 32 33 34 35 36 37 38 39 40 41 42 43 44 45 46 47 48 49 50
114
ASUS43 KLMK 040610
RWRKY
KENTUCKY REGIONAL WEATHER ROUNDUP
NATIONAL WEATHER SERVICE LOUISVILLE KY
200 AM EDT WED MAY 04 2016

NOTE "FAIR" INDICATES FEW OR NO CLOUDS BELOW 12,000 FEET
WITH NO SIGNIFICANT WEATHER AND/OR OBSTRUCTIONS TO VISIBILITY.

KYZ001>023-026-027-061>063-070>075-040700-
WESTERN AND SOUTH CENTRAL KENTUCKY

CITY           SKY/WX    TMP DP  RH WIND       PRES   REMARKS
PADUCAH        CLEAR     50  46  86 SW5       29.90F
HENDERSON      CLOUDY    52  45  76 SW5       29.87F
OWENSBORO      PTCLDY    51  47  86 SW3       29.88F
HOPKINSVILLE   CLOUDY    50  47  90 SW3       29.90F
BOWLING GREEN  CLOUDY    52  46  80 CALM      29.89F
GLASGOW        CLOUDY    50  50 100 CALM      29.88F
$$

KYZ024-025-028>034-038-045-046-053-040700-
NORTH CENTRAL KENTUCKY

CITY           SKY/WX    TMP DP  RH WIND       PRES   REMARKS
LOUISVILLE/SDF CLOUDY    55  46  71 SW3       29.85F
LOUISVILLE/LOU CLOUDY    52  47  83 CALM      29.85F
FORT KNOX      CLOUDY    50  45  81 SW6       29.84F
$$

KYZ035>037-039>044-047>052-055>060-089>105-040700-
NORTHEAST KENTUCKY

CITY           SKY/WX    TMP DP  RH WIND       PRES   REMARKS
LEXINGTON      CLOUDY    52  47  83 W6        29.85F
COVINGTON      CLEAR     48  47  96 CALM      29.82F
FRANKFORT      PTCLDY    51  45  79 CALM      29.84F
$$

KYZ054-064>069-076>088-106>120-040700-
SOUTHEAST KENTUCKY

CITY           SKY/WX    TMP DP  RH WIND       PRES   REMARKS
JACKSON        CLOUDY    51  48  89 CALM      29.84F
LONDON         CLOUDY    54  46  74 W6        29.86F
SOMERSET       CLOUDY    50  45  81 W3        29.89S
MIDDLESBORO    CLOUDY    53  50  90 CALM      29.86F
MONTICELLO     CLOUDY    51  47  86 W9        29.89F
$$





USA.gov is the U.S. government's official web portal to all federal, state and local government web resources and services.